カタログに戻る

STARLINK-38088

運用中通信SSO
NORAD 100114·PAYLOAD·🇺🇸 United States

打ち上げ Jul 21, 2026 から Vandenberg Space Force Base

Loading…

次のパス (今後24時間)

TLE

最新Source: Space-Track

元期: Sep 14, 2026, 11:43 UTC

1 A0114U 26166P   26257.48819681  .00199109  00000-0  13013-2 0  9993
2 A0114  97.2833 275.4879 0000970  85.1503 274.9873 15.75253544  8650

AllMySatでSTARLINK-38088をリアルタイム追跡

Download on the App Store